| time (UTC) | temp F | wind direction | speed MPH | gust MPH | rain 1hr in | rain 24hr in | rain mn in | humidity % | barometer mb |
| 20260508074556 | 51 | 206 | 5.0 | 9.0 | 0.00 | 0.01 | 0.00 | 73 | 1011.7 |
| 20260508073059 | 52 | 200 | 5.0 | 11.0 | 0.00 | 0.01 | 0.00 | 72 | 1011.5 |
| 20260508071555 | 52 | 209 | 6.0 | 12.0 | 0.00 | 0.01 | 0.00 | 71 | 1011.8 |
| 20260508070050 | 52 | 197 | 8.0 | 13.0 | 0.00 | 0.01 | 0.00 | 71 | 1011.9 |
| 20260508064604 | 53 | 222 | 7.0 | 12.0 | 0.00 | 0.01 | 0.00 | 70 | 1012.2 |
| 20260508063047 | 53 | 202 | 8.0 | 12.0 | 0.00 | 0.01 | 0.00 | 70 | 1012.2 |
| 20260508061544 | 54 | 219 | 5.0 | 12.0 | 0.00 | 0.01 | 0.00 | 70 | 1012.3 |
| 20260508060040 | 54 | 197 | 7.0 | 13.0 | 0.00 | 0.01 | 0.00 | 71 | 1012.5 |
| 20260508054540 | 54 | 204 | 6.0 | 10.0 | 0.00 | 0.01 | 0.00 | 73 | 1012.5 |
| 20260508053038 | 55 | 183 | 4.0 | 10.0 | 0.00 | 0.01 | 0.00 | 72 | 1012.5 |
| 20260508051537 | 55 | 198 | 6.0 | 11.0 | 0.00 | 0.01 | 0.00 | 71 | 1012.6 |
| 20260508050039 | 54 | 222 | 4.0 | 8.0 | 0.00 | 0.01 | 0.01 | 74 | 1012.5 |
| 20260508044532 | 54 | 210 | 4.0 | 7.0 | 0.00 | 0.01 | 0.01 | 74 | 1012.4 |
| 20260508043035 | 54 | 200 | 4.0 | 7.0 | 0.00 | 0.01 | 0.01 | 75 | 1012.4 |
| 20260508041531 | 54 | 217 | 5.0 | 9.0 | 0.00 | 0.01 | 0.01 | 76 | 1012.6 |
| 20260508040034 | 54 | 185 | 4.0 | 11.0 | 0.00 | 0.01 | 0.01 | 77 | 1012.4 |
| 20260508034530 | 53 | 212 | 6.0 | 16.0 | 0.00 | 0.01 | 0.01 | 79 | 1012.6 |
| 20260508033029 | 53 | 207 | 5.0 | 9.0 | 0.00 | 0.01 | 0.01 | 78 | 1013.0 |
| 20260508031530 | 53 | 217 | 4.0 | 10.0 | 0.00 | 0.01 | 0.01 | 79 | 1012.9 |
| 20260508030029 | 53 | 199 | 5.0 | 9.0 | 0.00 | 0.01 | 0.01 | 80 | 1012.7 |
| 20260508024530 | 52 | 197 | 3.0 | 6.0 | 0.00 | 0.01 | 0.01 | 80 | 1012.6 |
| 20260508023034 | 52 | 200 | 3.0 | 7.0 | 0.00 | 0.01 | 0.01 | 79 | 1012.5 |
| 20260508021527 | 52 | 199 | 3.0 | 4.0 | 0.00 | 0.01 | 0.01 | 79 | 1012.5 |
| 20260508020026 | 52 | 202 | 2.0 | 5.0 | 0.00 | 0.01 | 0.01 | 79 | 1012.4 |
| 20260508014532 | 52 | 199 | 3.0 | 6.0 | 0.00 | 0.01 | 0.01 | 80 | 1012.3 |
| 20260508013026 | 53 | 211 | 2.0 | 6.0 | 0.00 | 0.01 | 0.01 | 81 | 1012.2 |
| 20260508011627 | 52 | 205 | 3.0 | 5.0 | 0.00 | 0.01 | 0.01 | 79 | 1012.2 |
| 20260508010030 | 53 | 213 | 2.0 | 5.0 | 0.00 | 0.01 | 0.01 | 78 | 1012.2 |
| 20260508004523 | 53 | 213 | 2.0 | 6.0 | 0.00 | 0.01 | 0.01 | 79 | 1012.3 |
| 20260508003032 | 54 | 200 | 4.0 | 9.0 | 0.00 | 0.01 | 0.01 | 77 | 1012.2 |
| 20260508001521 | 55 | 212 | 8.0 | 13.0 | 0.00 | 0.01 | 0.01 | 73 | 1012.2 |
| 20260508000021 | 58 | 286 | 4.0 | 7.0 | 0.00 | 0.01 | 0.01 | 62 | 1013.1 |
| 20260507234522 | 58 | 195 | 3.0 | 8.0 | 0.00 | 0.01 | 0.01 | 60 | 1012.2 |
| 20260507233021 | 59 | 209 | 3.0 | 7.0 | 0.00 | 0.01 | 0.01 | 59 | 1012.2 |
| 20260507231520 | 59 | 219 | 3.0 | 7.0 | 0.00 | 0.01 | 0.01 | 57 | 1012.3 |
| 20260507230020 | 59 | 227 | 5.0 | 12.0 | 0.00 | 0.01 | 0.01 | 56 | 1012.4 |
| 20260507224519 | 59 | 244 | 4.0 | 13.0 | 0.00 | 0.01 | 0.01 | 56 | 1012.6 |
| 20260507223019 | 60 | 192 | 3.0 | 7.0 | 0.00 | 0.01 | 0.01 | 59 | 1012.6 |
| 20260507221518 | 60 | 224 | 3.0 | 10.0 | 0.00 | 0.01 | 0.01 | 57 | 1013.0 |
| 20260507220017 | 61 | 232 | 3.0 | 6.0 | 0.01 | 0.01 | 0.01 | 58 | 1012.9 |
| 20260507214517 | 60 | 297 | 0.0 | 4.0 | 0.01 | 0.01 | 0.01 | 59 | 1012.6 |
| 20260507213023 | 59 | 321 | 0.0 | 0.0 | 0.01 | 0.01 | 0.01 | 68 | 1012.6 |
| 20260507211515 | 57 | 338 | 0.0 | 1.0 | 0.01 | 0.01 | 0.01 | 76 | 1012.9 |
| 20260507210014 | 53 | 318 | 2.0 | 9.0 | 0.00 | 0.00 | 0.00 | 79 | 1013.1 |
| 20260507204513 | 55 | 344 | 8.0 | 17.0 | 0.00 | 0.00 | 0.00 | 68 | 1013.5 |
| 20260507203013 | 63 | 304 | 4.0 | 13.0 | 0.00 | 0.00 | 0.00 | 40 | 1012.6 |
| 20260507201511 | 63 | 265 | 5.0 | 13.0 | 0.00 | 0.00 | 0.00 | 41 | 1012.2 |
| 20260507200022 | 63 | 251 | 8.0 | 17.0 | 0.00 | 0.00 | 0.00 | 41 | 1012.2 |
| 20260507194507 | 63 | 219 | 6.0 | 15.0 | 0.00 | 0.00 | 0.00 | 43 | 1012.5 |
| 20260507193007 | 62 | 209 | 9.0 | 17.0 | 0.00 | 0.00 | 0.00 | 43 | 1012.8 |
| 20260507191503 | 62 | 134 | 7.0 | 12.0 | 0.00 | 0.00 | 0.00 | 42 | 1013.0 |
| 20260507184600 | 62 | 204 | 5.0 | 14.0 | 0.00 | 0.00 | 0.00 | 41 | 1013.4 |
| 20260507183100 | 61 | 212 | 7.0 | 14.0 | 0.00 | 0.00 | 0.00 | 42 | 1013.6 |
| 20260507181556 | 61 | 210 | 6.0 | 12.0 | 0.00 | 0.00 | 0.00 | 43 | 1013.7 |
| 20260507180104 | 61 | 188 | 4.0 | 15.0 | 0.00 | 0.00 | 0.00 | 42 | 1013.9 |
| 20260507174553 | 62 | 207 | 7.0 | 12.0 | 0.00 | 0.00 | 0.00 | 40 | 1014.3 |
| 20260507173055 | 62 | 208 | 8.0 | 15.0 | 0.00 | 0.00 | 0.00 | 40 | 1014.5 |
| 20260507171555 | 61 | 229 | 5.0 | 11.0 | 0.00 | 0.00 | 0.00 | 43 | 1014.6 |
| 20260507170050 | 60 | 296 | 6.0 | 13.0 | 0.00 | 0.00 | 0.00 | 41 | 1015.1 |
| 20260507164544 | 60 | 211 | 5.0 | 14.0 | 0.00 | 0.00 | 0.00 | 41 | 1015.3 |
| 20260507163044 | 59 | 269 | 5.0 | 12.0 | 0.00 | 0.00 | 0.00 | 43 | 1015.4 |
| 20260507161542 | 60 | 229 | 4.0 | 15.0 | 0.00 | 0.00 | 0.00 | 41 | 1015.5 |
| 20260507160039 | 59 | 227 | 4.0 | 13.0 | 0.00 | 0.00 | 0.00 | 46 | 1015.5 |
| 20260507154540 | 57 | 192 | 6.0 | 13.0 | 0.00 | 0.00 | 0.00 | 46 | 1015.7 |
| 20260507153045 | 58 | 276 | 3.0 | 8.0 | 0.00 | 0.00 | 0.00 | 42 | 1015.8 |
| 20260507151534 | 57 | 246 | 3.0 | 10.0 | 0.00 | 0.00 | 0.00 | 49 | 1016.0 |
| 20260507150033 | 56 | 230 | 4.0 | 9.0 | 0.00 | 0.00 | 0.00 | 47 | 1016.0 |
| 20260507144530 | 55 | 235 | 4.0 | 9.0 | 0.00 | 0.00 | 0.00 | 50 | 1016.2 |
| 20260507143030 | 54 | 207 | 4.0 | 9.0 | 0.00 | 0.00 | 0.00 | 49 | 1016.4 |
| 20260507141527 | 53 | 219 | 5.0 | 10.0 | 0.00 | 0.00 | 0.00 | 52 | 1016.5 |
| 20260507140026 | 52 | 197 | 4.0 | 8.0 | 0.00 | 0.00 | 0.00 | 54 | 1016.5 |
| 20260507134525 | 51 | 221 | 2.0 | 8.0 | 0.00 | 0.00 | 0.00 | 59 | 1016.5 |
| 20260507133024 | 51 | 214 | 3.0 | 6.0 | 0.00 | 0.00 | 0.00 | 59 | 1016.4 |
| 20260507131522 | 51 | 214 | 2.0 | 5.0 | 0.00 | 0.00 | 0.00 | 57 | 1016.3 |
| 20260507130018 | 50 | 228 | 1.0 | 5.0 | 0.00 | 0.00 | 0.00 | 57 | 1016.2 |
| 20260507124517 | 48 | 294 | 2.0 | 3.0 | 0.00 | 0.00 | 0.00 | 63 | 1016.2 |
| 20260507123011 | 46 | 298 | 0.0 | 3.0 | 0.00 | 0.00 | 0.00 | 69 | 1016.2 |
| 20260507121507 | 44 | 307 | 1.0 | 3.0 | 0.00 | 0.00 | 0.00 | 72 | 1016.0 |
| 20260507120006 | 43 | 311 | 0.0 | 3.0 | 0.00 | 0.00 | 0.00 | 76 | 1016.0 |
| 20260507114607 | 41 | 312 | 0.0 | 0.0 | 0.00 | 0.00 | 0.00 | 80 | 1015.9 |
| 20260507113006 | 40 | 313 | 0.0 | 1.0 | 0.00 | 0.00 | 0.00 | 81 | 1015.8 |
| 20260507111509 | 41 | 313 | 0.0 | 0.0 | 0.00 | 0.00 | 0.00 | 81 | 1015.8 |
| 20260507110005 | 41 | 313 | 0.0 | 0.0 | 0.00 | 0.00 | 0.00 | 81 | 1015.8 |
| 20260507104504 | 41 | 313 | 0.0 | 0.0 | 0.00 | 0.00 | 0.00 | 82 | 1015.7 |
| 20260507103003 | 41 | 313 | 0.0 | 0.0 | 0.00 | 0.00 | 0.00 | 82 | 1015.8 |
| 20260507101504 | 41 | 313 | 0.0 | 0.0 | 0.00 | 0.00 | 0.00 | 83 | 1015.8 |
| 20260507100005 | 40 | 313 | 0.0 | 0.0 | 0.00 | 0.00 | 0.00 | 82 | 1015.8 |
| 20260507094500 | 40 | 313 | 0.0 | 0.0 | 0.00 | 0.00 | 0.00 | 82 | 1015.7 |
| 20260507093103 | 40 | 313 | 0.0 | 0.0 | 0.00 | 0.00 | 0.00 | 82 | 1015.7 |
| 20260507091606 | 40 | 313 | 0.0 | 0.0 | 0.00 | 0.00 | 0.00 | 81 | 1016.1 |
| 20260507090058 | 40 | 313 | 0.0 | 0.0 | 0.00 | 0.00 | 0.00 | 81 | 1016.1 |
| 20260507084558 | 41 | 313 | 0.0 | 0.0 | 0.00 | 0.00 | 0.00 | 81 | 1016.0 |
| 20260507083103 | 40 | 313 | 0.0 | 0.0 | 0.00 | 0.00 | 0.00 | 82 | 1016.0 |
| 20260507081556 | 40 | 313 | 0.0 | 0.0 | 0.00 | 0.00 | 0.00 | 82 | 1015.8 |
| 20260507080131 | 39 | 313 | 0.0 | 0.0 | 0.00 | 0.00 | 0.00 | 81 | 1016.0 |